DG7AA-13 Weather Reports


Display with metric or nautical units.
time (UTC)temp
F
wind
direction
speed
MPH
gust
MPH
rain 1hr
in
rain 24hr
in
rain mn
in
humidity
%
barometer
mb
20260504150523 72 341 0.0 2.0 0.00 0.00 0.00 54
20260504140526 74 204 1.0 4.0 0.00 0.00 0.00 49
20260504130526 75 168 1.0 3.0 0.00 0.00 0.00 48
20260504110523 72 147 1.0 2.0 0.00 0.00 0.00 52
20260504100526 73 161 1.0 4.0 0.00 0.00 0.00 53
20260504081532 61 175 1.0 3.0 0.00 0.00 0.00 75
20260504080526 60 184 2.0 4.0 0.00 0.00 0.00 75
20260504050523 52 148 0.0 2.0 0.00 0.00 0.00 86
20260504045523 51 156 0.0 2.0 0.00 0.00 0.00 88
20260504044527 50 113 0.0 1.0 0.00 0.00 0.00 88
20260504043522 50 150 0.0 1.0 0.00 0.00 0.00 89
20260504042523 49 149 0.0 1.0 0.00 0.00 0.00 90
20260504041531 49 164 0.0 1.0 0.00 0.00 0.00 91
20260504040523 48 154 0.0 1.0 0.00 0.00 0.00 90
20260504035531 48 354 0.0 1.0 0.00 0.00 0.00 90
20260504034527 49 0.0 0.0 0.00 0.00 0.00 88
20260504033535 49 0.0 0.0 0.00 0.00 0.00 87
20260504032523 50 356 0.0 1.0 0.00 0.00 0.00 86
20260504031531 51 0.0 1.0 0.00 0.00 0.00 86
20260504030523 51 0.0 0.0 0.00 0.00 0.00 86
20260504025519 51 224 0.0 2.0 0.00 0.00 0.00 86
20260504024523 52 245 0.0 1.0 0.00 0.00 0.00 84
20260504023531 53 197 0.0 1.0 0.00 0.00 0.00 82
20260504022526 55 0.0 0.0 0.00 0.00 0.00 80
20260504021527 55 0.0 0.0 0.00 0.00 0.00 80
20260504020523 55 0.0 1.0 0.00 0.00 0.00 80
20260504015531 54 165 0.0 2.0 0.00 0.00 0.00 80
20260504014526 54 211 0.0 1.0 0.00 0.00 0.00 81
20260504013531 54 225 0.0 2.0 0.00 0.00 0.00 81
20260504012523 54 199 0.0 1.0 0.00 0.00 0.00 82
20260504011534 53 0.0 0.0 0.00 0.00 0.00 82
20260504010522 54 144 0.0 1.0 0.00 0.00 0.00 80
20260504005531 54 0.0 0.0 0.00 0.00 0.00 80
20260504004526 54 0.0 0.0 0.00 0.00 0.00 78
20260504003531 55 0.0 0.0 0.00 0.00 0.00 78
20260504002523 55 0.0 0.0 0.00 0.00 0.00 76
20260504001534 56 0.0 0.0 0.00 0.00 0.00 76
20260504000523 57 214 0.0 1.0 0.00 0.00 0.00 73
20260503235531 58 225 0.0 1.0 0.00 0.00 0.00 73
20260503234526 58 0.0 1.0 0.00 0.00 0.00 72
20260503233526 58 0.0 0.0 0.00 0.00 0.00 72
20260503232527 59 0.0 0.0 0.00 0.00 0.00 69
20260503231520 59 0.0 0.0 0.00 0.00 0.00 69
20260503230520 60 0.0 0.0 0.00 0.00 0.00 67
20260503225531 61 161 0.0 2.0 0.00 0.00 0.00 65
20260503224524 61 158 0.0 1.0 0.00 0.00 0.00 64
20260503223528 61 152 0.0 1.0 0.00 0.00 0.00 64
20260503222523 61 0.0 1.0 0.00 0.00 0.00 62
20260503221546 62 58 0.0 1.0 0.00 0.00 0.00 61
20260503220526 62 30 0.0 2.0 0.00 0.00 0.00 61
20260503215522 62 88 0.0 2.0 0.00 0.00 0.00 62
20260503214526 62 34 0.0 2.0 0.00 0.00 0.00 60
20260503213540 63 288 0.0 3.0 0.00 0.00 0.00 59
20260503212526 64 354 0.0 2.0 0.00 0.00 0.00 58
20260503211531 64 313 1.0 2.0 0.00 0.00 0.00 55
20260503210526 63 153 0.0 3.0 0.00 0.00 0.00 56
20260503205528 64 6 0.0 2.0 0.00 0.00 0.00 55
20260503204523 64 1 0.0 2.0 0.00 0.00 0.00 53
20260503203531 65 353 1.0 4.0 0.00 0.00 0.00 52
20260503202523 65 22 1.0 3.0 0.00 0.00 0.00 52
20260503201531 65 338 0.0 2.0 0.00 0.00 0.00 51
20260503200526 65 314 0.0 2.0 0.00 0.00 0.00 51
20260503195537 64 4 1.0 3.0 0.00 0.00 0.00 51
20260503194526 64 349 1.0 2.0 0.00 0.00 0.00 51
20260503193534 65 99 0.0 2.0 0.00 0.00 0.00 50
20260503192523 65 351 1.0 3.0 0.00 0.00 0.00 47
20260503191519 65 348 1.0 2.0 0.00 0.00 0.00 49
20260503190526 65 163 0.0 2.0 0.00 0.00 0.00 46
20260503185531 65 235 0.0 2.0 0.00 0.00 0.00 47
20260503184525 66 0.0 0.0 0.00 0.00 0.00 48
20260503183534 67 163 0.0 2.0 0.00 0.00 0.00 45
20260503182522 67 161 0.0 1.0 0.00 0.00 0.00 44
20260503181535 68 145 0.0 2.0 0.00 0.00 0.00 42
20260503180524 69 164 0.0 2.0 0.00 0.00 0.00 41
20260503175521 69 158 1.0 2.0 0.00 0.00 0.00 39
20260503174523 70 174 1.0 4.0 0.00 0.00 0.00 38
20260503173531 70 163 2.0 5.0 0.00 0.00 0.00 37
20260503172523 71 129 1.0 4.0 0.00 0.00 0.00 36
20260503171541 71 143 1.0 5.0 0.00 0.00 0.00 36
20260503170523 71 139 2.0 4.0 0.00 0.00 0.00 35